{"data":{"norad_id":64826,"intl_designator":"2025-151L","name":"KUIPER-00079","alt_names":[],"object_type":"PAYLOAD","status":"ACTIVE","operator":null,"country":"US","launch_date":"2025-07-16","launch_site_code":"AFETR","launch_vehicle":null,"mission":null,"orbit_class":"UNKNOWN","rcs_meters":null,"size_class":null,"mass_kg":null,"dimensions":null,"purposes":[],"wikipedia_slug":null,"has_3d_model":false,"image_url":null,"decayed_at":null,"tle_current":{"epoch":"2026-09-21T20:48:04.144896Z","epoch_age_seconds":56452,"freshness":"FRESH","line1":"1 64826U 25151L   26264.86671464  .00001820  00000+0  26773-3 0  9990","line2":"2 64826  51.8987 153.0542 0001168  90.2071 269.9025 14.79929478 65555","mean_motion":14.79929478,"eccentricity":0.0001168,"inclination_deg":51.8987,"raan_deg":153.0542,"arg_perigee_deg":90.2071,"mean_anomaly_deg":269.9025,"bstar":0.00026773,"rev_number":6555,"period_min":97.30193373444,"perigee_km":628.72824981661,"apogee_km":630.36524473997,"semimajor_km":7007.6837472783,"source":"CELESTRAK","updated_at":"2026-09-22T09:00:29.975980Z"}}}